FENGYUN 1C DEB, 31851

Orbit data source: Space-Track

FENGYUN 1C DEB, 31851 is space debris in SSO originally from a launch on Mon, 10 May 1999 UTC launched from the Taiyaun Space Center, China (TSC). Fengyun 1C debris stems from the Chinese weather satellite Fengyun-1C, which was intentionally destroyed by a Chinese anti-satellite missile in 2007. This event dramatically increased the amount of space debris, with thousands of trackable fragments posing hazards to satellites and human spaceflight. The Fengyun 1C debris cloud has become a focal point in discussions about space sustainability and the need for international regulations to prevent the creation of new debris.

Loading next visibility...
Identifier
31851, 1999-025CJR
Orbit
SSO
Country
Flag of CNCN / PRC
Related business
Manufacturer
Unknown
Mission
Spacecraft
Bus & Motor
Unknown
Mass
Unknown
Launch date (UTC)
1999-05-10 (27 years ago)
Launch vehicle
Unknown
Launch site
Taiyaun Space Center, China (TSC)
Object type
Payload
Rocket body
Debris
Shape & HBR
Unknown shape, 1.1 m
Radar Cross Section
Small (<0.1 m²)

Expand to show TLE details & history
Last TLE update: 2 weeks ago

TLE from 2 weeks ago
0 FENGYUN 1C DEB
1 31851U 99025CJR 26131.37811477  .00001799  00000-0  14164-2 0  9998
2 31851  98.7924 341.8003 0196272 236.0621 122.1741 13.84405019635372
Epoch: 2026-05-11T09:04Z
TLE epoch observation values (Epoch: 2026-05-11T09:04:29.116Z)
Latitude
0.00005°
Longitude
-23.48873°
Altitude
1,029.744 km
Speed
7.297 km/s
True Right ascension
22h 47m 12s
True Declination
0° 00' 00"
Sunlit
Object was in daylight at epoch
Visualization orbit readout
Latitude
Unknown
Longitude
Unknown
Altitude
Unknown
Speed
Unknown
Apparent Right ascension
Unknown
Apparent Declination
Unknown
Sunlit
N/A
Visualization observer readout
Local Sidereal Time
20:39:20
Azimuth
Unknown
Elevation
Unknown
Doppler factor
Unknown
Orbital elements
Apogee altitude
1,089.256 km
Perigee altitude
801.77 km
Semi-major axis
7,323.65 km
Eccentricity
0.01963
Inclination
98.7924°
RAAN
341.8003°
Arg. of periapsis
236.0621°
True anomaly
124.05293°
Mean anomaly
122.1741°
Eccentric anomaly
123.11599°
Mean motion
3.46299 °/min
Orbital period
103.96 mins
BSTAR
0.0014164
Loading maneuver chart data...
Computing Atmospheric mass density...
Loading historical data...
Loading historical data...
Loading historical data...
Loading historical data...
Loading historical data...
Loading historical data...
Loading historical data...

Documentation

Showing up to 5 results
|